Location: Gerlach
(40.6516°N, 119.3568°W)
Time: 05:47:09
(UTC-07:00)

Explorer 11/Cluster Stage 4 - Pass Details

Date: 06 February 2023
Orbit: 466 x 1241 km, 28.8° (Epoch: 02 April)

Event Time Altitude Azimuth Distance (km) Brightness Sun altitude
Exits shadow 02:59:32 14° 124° (ESE) 2,754 9.5 -45.9°
Drops below altitude 10° 03:01:10 10° 114° (ESE) 3,109 10.0 -45.6°
Sets 03:05:02 0° 99° (E) 4,140 10.9 -44.9°
